Flag for Germany Weather past 2 weeks in Rotenburg (Wümme), Lower Saxony, Germany

Now
63 °F

Partly sunny.


Feels Like: 63 °F
Forecast: 48 / 65 °F
Wind: 8 mph from Southwest

Location: Bremen

Current Time: Sep 2, 2015 at 3:57:38 PM

Latest Report: Sep 2, 2015 at 3:00 PM


Visibility: 25 mi

Pressure: 29.96 "Hg

Humidity: 64%

Dew point: 51 °F

Location of Rotenburg (Wümme)Location

Historic Weather in Rotenburg (Wümme) — Graph

°F

Rotenburg (Wümme) temperature yesterday

Maximum temperature yesterday: 69 °F (at 1:00 AM)
Minimum temperature yesterday: 54 °F (at 10:00 PM)
Average temperature yesterday: 63 °F

Past Weeks' High & Low Weather Summary

 TemperatureHumidityPressure
High84 °F (Aug 31, 6:00 PM)100% (Aug 20, 1:00 AM)30.28 "Hg (Aug 20, 1:00 AM)
Low49 °F (Aug 29, 5:00 AM)33% (Aug 22, 2:00 PM)29.56 "Hg (Aug 24, 7:00 PM)
Average65 °F77%29.99 "Hg
* Reported Aug 18 3:00 PM — Sep 2 3:00 PM, Rotenburg (Wümme), Weather by CustomWeather, © 2015

Note: Actual official high and low records may vary slightly from our data, if they occured in-between our weather recording intervals... More about our weather records

Advertising

Rotenburg (Wümme) weather history for previous 24 hours

 ConditionsComfort  
Time TempWeatherWind HumidityBarometerVisibility
3:00 PM
Wed, Sep 2
63 °FPartly sunny.8 mph64%29.96 "Hg25 mi
2:00 PM65 °FScattered clouds.8 mph58%29.96 "Hg22 mi
1:00 PM64 °FScattered clouds.8 mph61%29.97 "Hg19 mi
12:00 PM63 °FScattered clouds.8 mph67%29.98 "Hg19 mi
11:00 AM61 °FPassing clouds.8 mph72%29.98 "Hg19 mi
10:00 AM59 °FPassing clouds.7 mph79%29.97 "Hg19 mi
9:00 AM56 °FPassing clouds.7 mph84%29.97 "Hg19 mi
8:00 AM53 °FPassing clouds.5 mph89%29.96 "Hg19 mi
7:00 AM51 °FSunny.5 mph94%29.95 "Hg12 mi
6:00 AM52 °FPassing clouds.6 mph94%29.95 "Hg14 mi
5:00 AM52 °FPassing clouds.5 mph94%29.96 "Hg14 mi
4:00 AM52 °FPassing clouds.5 mph95%29.97 "Hg14 mi
3:00 AM52 °FPassing clouds.5 mph94%29.97 "Hg14 mi
2:00 AM53 °FPassing clouds.6 mph93%29.96 "Hg14 mi
1:00 AM53 °FPassing clouds.6 mph92%29.96 "Hg16 mi
11:00 PM
Tue, Sep 1
55 °FPassing clouds.5 mph89%29.94 "Hg19 mi
10:00 PM54 °FPassing clouds.5 mph90%29.93 "Hg19 mi
9:00 PM56 °FPassing clouds.5 mph88%29.92 "Hg19 mi
8:00 PM60 °FOvercast.5 mph83%29.90 "Hg19 mi
7:00 PM61 °FOvercast.7 mph82%29.89 "Hg19 mi
6:00 PM60 °FOvercast.6 mph87%29.88 "Hg16 mi
5:00 PM62 °FOvercast.8 mph81%29.87 "Hg17 mi
4:00 PM62 °FLight rain. Overcast.5 mph84%29.85 "Hg16 mi
3:00 PM62 °FLight rain. Overcast.5 mph91%29.84 "Hg12 mi
Weather by CustomWeather, © 2015

See weather overviewHow to use our weather pages